Waarnemingen

Advertentie
Mijn weer
Santander/Parayas, Spanje (8021): temperatuur & dauwpunt: 22.09.2020 20:00:00 - 28.09.2020 20:00:00 (CEST)Santander/Parayas, Spanje (8021): windsnelheid & windstoten: 22.09.2020 20:00:00 - 28.09.2020 20:00:00 (CEST)Santander/Parayas, Spanje (8021): windrichting: 22.09.2020 20:00:00 - 28.09.2020 20:00:00 (CEST)Santander/Parayas, Spanje (8021): luchtdruk: 22.09.2020 20:00:00 - 28.09.2020 20:00:00 (CEST)Santander/Parayas, Spanje (8021): zicht: 22.09.2020 20:00:00 - 28.09.2020 20:00:00 (CEST)
Datum & Tijd tt [°C] td [°C] ff [km/u] ff [kn] fx [km/u] fx [kn] dd ppp [hPa] vv [km]
28.09.2020 20:00:00 - - - - - - - - -
28.09.2020 19:00:00 17,7 10,8 9 5 - - NO 1020,6 -
28.09.2020 18:00:00 18,6 10,7 8 4 - - NNO 1020,2 -
28.09.2020 17:00:00 19,3 10,0 11 6 - - N 1020,3 20
28.09.2020 16:00:00 19,8 9,9 11 6 - - N 1020,4 -
28.09.2020 15:00:00 19,8 9,3 8 4 - - WNW 1021,0 -
28.09.2020 14:00:00 18,7 9,6 11 6 - - NW 1021,7 20
28.09.2020 13:00:00 19,0 9,6 11 6 - - WNW 1021,9 -
28.09.2020 12:00:00 18,5 9,9 11 6 - - ZW 1021,9 -
28.09.2020 11:00:00 17,3 9,0 15 8 - - ZZW 1021,5 20
28.09.2020 10:00:00 14,9 9,5 13 7 - - ZZW 1021,0 -
28.09.2020 09:00:00 13,9 9,0 15 8 - - ZZW 1020,7 -
28.09.2020 08:00:00 13,6 9,3 11 6 - - ZZW 1020,3 15
28.09.2020 07:00:00 13,7 9,6 15 8 - - ZZW 1020,1 -
28.09.2020 06:00:00 13,8 9,7 15 8 - - ZZW 1020,2 -
28.09.2020 05:00:00 13,6 9,6 13 7 - - ZZW 1020,5 -
28.09.2020 04:00:00 13,3 9,7 11 6 - - ZZW 1021,1 -
28.09.2020 03:00:00 12,5 9,3 9 5 - - ZZW 1021,3 -
28.09.2020 02:00:00 13,6 9,4 11 6 - - ZZW 1021,5 -
28.09.2020 01:00:00 13,7 9,7 9 5 - - ZW 1021,5 -
28.09.2020 00:00:00 14,2 9,6 9 5 - - ZW 1021,4 -
27.09.2020 23:00:00 14,6 9,8 9 5 - - ZW 1021,3 30
27.09.2020 22:00:00 14,8 9,4 8 4 - - ZW 1021,0 -
27.09.2020 21:00:00 15,3 9,0 9 5 - - W 1020,5 -
27.09.2020 20:00:00 15,6 8,6 11 6 - - W 1020,4 30
27.09.2020 19:00:00 16,3 8,2 15 8 - - WNW 1020,5 -
27.09.2020 18:00:00 17,0 8,3 16 9 - - WNW 1020,6 -
27.09.2020 17:00:00 17,2 8,4 18 10 - - WNW 1020,7 30
27.09.2020 16:00:00 17,9 9,3 22 12 - - NW 1020,6 -
27.09.2020 15:00:00 17,9 8,7 22 12 - - NW 1020,4 -
27.09.2020 14:00:00 18,2 9,4 22 12 - - WNW 1020,3 25
27.09.2020 13:00:00 17,8 9,0 21 11 - - NW 1020,3 -
27.09.2020 12:00:00 17,6 9,6 18 10 - - WNW 1020,0 -
27.09.2020 11:00:00 16,3 13,3 9 5 - - W 1019,7 20
27.09.2020 10:00:00 13,3 11,5 8 4 - - ZW 1019,2 -
27.09.2020 09:00:00 12,7 11,1 4 2 - - ZW 1018,9 -
27.09.2020 08:00:00 12,0 10,9 9 5 - - ZZW 1018,4 15
27.09.2020 07:00:00 11,4 10,6 11 6 - - ZW 1017,9 -
27.09.2020 06:00:00 11,7 11,2 9 5 - - ZW 1017,7 -
27.09.2020 05:00:00 12,4 11,8 11 6 - - ZW 1017,7 -
27.09.2020 04:00:00 12,7 12,2 4 2 - - WZW 1018,2 -
27.09.2020 03:00:00 12,9 12,7 13 7 - - O 1018,4 -
27.09.2020 02:00:00 13,4 12,9 16 9 - - O 1017,9 -
27.09.2020 01:00:00 14,3 13,7 15 8 - - NO 1017,2 -
27.09.2020 00:00:00 15,3 14,8 22 12 - - NNO 1016,1 -
26.09.2020 23:00:00 16,0 15,7 18 10 - - NNO 1015,1 5
26.09.2020 22:00:00 17,2 16,7 35 19 - - WNW 1014,6 -
26.09.2020 21:00:00 18,3 16,1 42 23 - - W 1013,9 -
26.09.2020 20:00:00 18,8 15,6 41 22 - - W 1013,5 8
26.09.2020 19:00:00 19,3 15,0 37 20 - - W 1013,3 -
26.09.2020 18:00:00 16,1 14,8 16 9 - - ZZW 1014,1 -
26.09.2020 17:00:00 16,3 14,3 18 10 - - ZZW 1014,9 7
26.09.2020 16:00:00 15,9 13,9 21 11 - - ZW 1016,2 -
26.09.2020 15:00:00 15,5 13,5 16 9 - - ZZW 1017,2 -
26.09.2020 14:00:00 15,7 13,2 18 10 - - ZW 1018,5 9
26.09.2020 13:00:00 15,7 13,6 13 7 - - ZW 1019,2 -
26.09.2020 12:00:00 14,5 13,0 16 9 - - ZZW 1020,2 -
26.09.2020 11:00:00 13,9 12,6 16 9 - - ZZW 1021,2 6
26.09.2020 10:00:00 13,4 12,3 15 8 - - ZW 1021,3 -
26.09.2020 09:00:00 12,7 11,8 18 10 - - ZW 1021,7 -
26.09.2020 08:00:00 12,9 11,5 18 10 - - ZW 1022,3 9
26.09.2020 07:00:00 13,0 11,9 15 8 - - ZW 1022,3 -
26.09.2020 06:00:00 12,6 11,3 18 10 - - ZZW 1022,6 -
26.09.2020 05:00:00 12,8 11,5 21 11 - - ZW 1023,4 -
26.09.2020 04:00:00 13,5 11,4 22 12 - - WZW 1023,7 -
26.09.2020 03:00:00 15,5 8,1 24 13 - - WNW 1024,3 -
26.09.2020 02:00:00 14,9 11,1 16 9 - - WNW 1024,6 -
26.09.2020 01:00:00 14,1 10,7 16 9 - - WNW 1024,8 -
26.09.2020 00:00:00 14,1 9,4 15 8 - - W 1025,1 -
25.09.2020 23:00:00 15,7 9,0 24 13 - - WNW 1025,3 25
25.09.2020 22:00:00 14,1 10,4 34 18 - - NW 1025,3 -
25.09.2020 21:00:00 15,0 9,7 28 15 - - WNW 1024,7 -
25.09.2020 20:00:00 15,7 9,9 28 15 - - W 1024,0 7
25.09.2020 19:00:00 15,8 9,5 28 15 - - WNW 1023,8 -
25.09.2020 18:00:00 17,2 9,7 29 16 - - WNW 1023,7 -
25.09.2020 17:00:00 17,0 8,6 37 20 - - WNW 1023,4 25
25.09.2020 16:00:00 17,2 8,9 37 20 - - WNW 1022,9 -
25.09.2020 15:00:00 17,3 9,0 39 21 - - WNW 1022,5 -
25.09.2020 14:00:00 16,9 9,5 39 21 - - WNW 1022,5 25
25.09.2020 13:00:00 16,1 10,6 34 18 - - WNW 1022,2 -
25.09.2020 12:00:00 12,8 10,4 34 18 - - WNW 1021,9 -
25.09.2020 11:00:00 13,2 11,0 31 17 - - WNW 1021,1 20
25.09.2020 10:00:00 12,4 11,0 35 19 - - W 1020,4 -
25.09.2020 09:00:00 12,5 10,0 31 17 - - WZW 1018,4 -
25.09.2020 08:00:00 12,6 10,6 29 16 - - W 1018,7 5
25.09.2020 07:00:00 13,0 10,0 34 18 - - W 1017,8 -
25.09.2020 06:00:00 12,9 9,9 37 20 - - W 1017,7 -
25.09.2020 05:00:00 12,5 9,7 29 16 - - W 1017,1 -
25.09.2020 04:00:00 13,4 9,1 34 18 - - WZW 1016,8 -
25.09.2020 03:00:00 13,0 10,8 24 13 - - WZW 1017,1 -
25.09.2020 02:00:00 13,1 11,2 31 17 - - W 1017,0 -
25.09.2020 01:00:00 13,2 11,6 29 16 - - W 1017,1 -
25.09.2020 00:00:00 13,3 12,0 26 14 - - W 1016,5 -
24.09.2020 23:00:00 14,2 12,4 28 15 - - W 1016,3 9
24.09.2020 22:00:00 14,7 12,9 31 17 78 42 W 1015,0 -
24.09.2020 21:00:00 17,4 12,7 37 20 - - WNW 1014,0 -
24.09.2020 20:00:00 18,7 12,2 37 20 - - WNW 1012,8 15
24.09.2020 19:00:00 19,6 12,4 39 21 - - WNW 1012,3 -
24.09.2020 18:00:00 20,2 11,3 31 17 - - WNW 1011,8 -
24.09.2020 17:00:00 19,8 14,2 29 16 - - WNW 1012,1 25
24.09.2020 16:00:00 21,8 11,3 21 11 - - W 1011,5 -
24.09.2020 15:00:00 22,1 12,2 18 10 - - WNW 1011,9 -
24.09.2020 14:00:00 21,5 12,8 21 11 - - W 1012,1 30
24.09.2020 13:00:00 19,8 12,8 15 8 - - W 1012,7 -
24.09.2020 12:00:00 20,0 13,6 13 7 - - ZW 1012,9 -
24.09.2020 11:00:00 18,5 13,6 13 7 - - ZW 1012,7 25
24.09.2020 10:00:00 17,5 14,1 11 6 - - ZZW 1012,6 -
24.09.2020 09:00:00 16,5 13,9 13 7 - - ZZW 1012,7 -
24.09.2020 08:00:00 16,3 14,3 11 6 - - ZW 1012,5 15
24.09.2020 07:00:00 16,4 15,1 11 6 - - ZZW 1012,8 -
24.09.2020 06:00:00 16,6 15,5 11 6 - - ZW 1013,0 -
24.09.2020 05:00:00 16,6 15,8 16 9 - - W 1013,3 -
24.09.2020 04:00:00 16,8 16,0 18 10 - - WNW 1013,5 -
24.09.2020 03:00:00 17,2 16,6 13 7 - - ZW 1013,6 -
24.09.2020 02:00:00 17,5 16,7 13 7 - - ZW 1013,3 -
24.09.2020 01:00:00 17,5 16,7 13 7 - - ZW 1013,2 -
24.09.2020 00:00:00 17,9 17,1 13 7 - - ZW 1013,4 -
23.09.2020 23:00:00 18,5 16,8 15 8 - - ZZW 1013,0 9
23.09.2020 22:00:00 18,6 16,9 11 6 - - WZW 1012,8 -
23.09.2020 21:00:00 19,5 17,1 9 5 - - ZZW 1012,2 -
23.09.2020 20:00:00 20,2 16,8 8 4 - - ZW 1011,7 15
23.09.2020 19:00:00 20,5 17,1 8 4 - - WZW 1011,5 -
23.09.2020 18:00:00 21,2 16,6 15 8 - - WNW 1011,4 -
23.09.2020 17:00:00 21,2 16,9 16 9 - - WNW 1011,3 15
23.09.2020 16:00:00 22,0 16,9 18 10 - - WNW 1011,2 -
23.09.2020 15:00:00 22,2 16,7 22 12 - - WNW 1011,3 -
23.09.2020 14:00:00 23,1 16,9 29 16 - - WNW 1011,3 20
23.09.2020 13:00:00 23,2 17,3 21 11 - - WNW 1010,9 -
23.09.2020 12:00:00 24,2 15,9 15 8 - - W 1010,4 -
23.09.2020 11:00:00 21,4 15,5 15 8 - - W 1009,5 20
23.09.2020 10:00:00 21,5 14,6 15 8 - - ZZW 1008,6 -
23.09.2020 09:00:00 20,2 14,5 15 8 - - ZZW 1007,9 -
23.09.2020 08:00:00 16,2 15,6 4 2 - - ZO 1008,0 15
23.09.2020 07:00:00 16,7 16,1 0 0 - - N 1008,9 -
23.09.2020 06:00:00 16,9 16,1 0 0 - - N 1009,5 -
23.09.2020 05:00:00 16,7 15,9 4 2 - - ZZO 1010,2 -
23.09.2020 04:00:00 15,8 15,0 0 0 - - N 1010,9 -
23.09.2020 03:00:00 16,6 15,8 2 1 - - Z 1011,5 -
23.09.2020 02:00:00 17,1 16,1 4 2 - - Z 1012,1 -
23.09.2020 01:00:00 17,7 16,2 2 1 - - ZZO 1012,5 -
23.09.2020 00:00:00 19,3 17,3 4 2 - - ZW 1012,9 -
22.09.2020 23:00:00 19,9 17,3 0 0 - - N 1013,3 20
22.09.2020 22:00:00 20,1 17,5 0 0 - - N 1013,2 -
22.09.2020 21:00:00 20,3 17,3 0 0 - - N 1013,0 -
22.09.2020 20:00:00 20,6 17,2 8 4 - - W 1013,0 20

tt = temperatuur
td = dauwpunt
ff = windsnelheid
fx = windstoten
dd = windrichting
ppp = luchtdruk
vv = zicht

Weerstations in de omgeving